Regional Weather Roundup
Issued by NWS

Home | Current Version | Previous Version | Text Only | Print | Product List | Glossary Off
Versions: 1 2 3 4 5 6 7 8 9 10 11 12 13 14 15 16 17 18 19 20 21 22 23 24 25 26 27 28 29 30 31 32 33 34 35 36 37 38 39 40 41 42 43 44 45 46 47 48 49 50

000
ASUS43 KFSD 021410
RWRSD

WEATHER ROUNDUP FOR SOUTH DAKOTA
NATIONAL WEATHER SERVICE SIOUX FALLS SD
900 AM CDT THU OCT 02 2014

NOTE: "FAIR" INDICATES FEW OR NO CLOUDS BELOW 12,000 FEET WITH NO
SIGNIFICANT WEATHER AND/OR OBSTRUCTIONS TO VISIBILITY.


SDZ001>005-009-010-012>017-021500-
NORTHWEST AND NORTH CENTRAL SOUTH DAKOTA

CITY           SKY/WX    TMP DP  RH WIND       PRES   REMARKS
BUFFALO          N/A     43  37  79 W13       29.88S
FAITH            N/A     45  38  76 W10       29.95S
MOBRIDGE       SUNNY     49  45  86 CALM      29.89F
$$

SDZ012>016-024>037-041>051-057-063-072>074-021500-
SOUTHWEST AND SOUTH CENTRAL SOUTH DAKOTA

CITY           SKY/WX    TMP DP  RH WIND       PRES   REMARKS
RAPID CTY ARPT SUNNY     46  38  73 CALM      30.00S
PIERRE         SUNNY     47  44  90 W7        29.93S
CUSTER         SUNNY     39  33  79 W6        30.04S
ELLSWORTH AFB  SUNNY     45  37  75 W7        29.99S
PHILIP         SUNNY     44  41  89 W8        29.97S
PINE RIDGE     SUNNY     43  40  89 SW6       30.04R
WINNER         FAIR      50  47  89 W10       29.96R FOG
$$

SDZ004>011-016>023-039-040-021500-
NORTHEAST SOUTH DAKOTA

CITY           SKY/WX    TMP DP  RH WIND       PRES   REMARKS
ABERDEEN       CLOUDY    51  48  89 W3        29.89S
WATERTOWN      CLOUDY    51  49  92 NW6       29.89R
SISSETON         N/A     52  50  93 CALM      29.86S
$$

SDZ017-020-022-023-036>040-048>070-021500-
SOUTHEAST SOUTH DAKOTA

CITY           SKY/WX    TMP DP  RH WIND       PRES   REMARKS
SIOUX FALLS    RAIN      54  52  93 NW8       29.89F FOG
HURON          CLOUDY    52  50  93 NW7       29.90R
CHAMBERLAIN    MOSUNNY   49  47  92 W7        29.94R
MITCHELL       CLOUDY    53  51  93 W5        29.93R
YANKTON        CLOUDY    54  52  94 NW7       29.91R
$$

ABBREVIATIONS USED IN REMARKS
   TC - TEMPERATURE IN CELSIUS
  WCI - WIND CHILL INDEX
   HX - HEAT INDEX
  VSB - VISIBILITY



USA.gov is the U.S. government's official web portal to all federal, state and local government web resources and services.